Regional Weather Roundup
Issued by NWS

Home | Current Version | Previous Version | Graphics & Text | Print | Product List | Glossary Off
Versions: 1 2 3 4 5 6 7 8 9 10 11 12 13 14 15 16 17 18 19 20 21 22 23 24 25 26 27 28 29 30 31 32 33 34 35 36 37 38 39 40 41 42 43 44 45 46 47 48 49 50

000
ASUS43 KTOP 142308
RWRKS

WEATHER ROUNDUP FOR KANSAS
NATIONAL WEATHER SERVICE GOODLAND KS
500 PM CST THU DEC 14 2017

NOTE:  "FAIR" INDICATES FEW OR NO CLOUDS BELOW 12,000 FEET WITH NO
SIGNIFICANT WEATHER AND/OR OBSTRUCTIONS TO VISIBILITY.

KSZ001>006-013>018-027>032-041>047-150000-
NORTHWEST KANSAS

CITY           SKY/WX    TMP DP  RH WIND       PRES   REMARKS
GOODLAND       CLOUDY    35  25  66 N10       30.17R WCI  27
HAYS           CLEAR     41  27  57 N21       30.14R
HILL CITY      PTCLDY    39  25  57 N14       30.16R WCI  31
RUSSELL        MOCLDY    42  31  64 N24       30.11R
$$

KSZ061>065-074>080-084>089-150000-
SOUTHWEST KANSAS

CITY           SKY/WX    TMP DP  RH WIND       PRES   REMARKS
DODGE CITY     CLOUDY    43  26  51 N18G26    30.14R
ELKHART        CLOUDY    44  29  54 N20G25    30.20R
GARDEN CITY    CLOUDY    41  27  57 N16       30.16R
GREAT BEND     CLOUDY    41  33  73 N9        30.13R
LIBERAL        CLOUDY    45  21  38 N18       30.17R
PRATT          CLOUDY    45  28  50 NW10      30.12R
$$

KSZ066>073-081>083-090>101-150000-
SOUTHEAST KANSAS

CITY           SKY/WX    TMP DP  RH WIND       PRES   REMARKS
CHANUTE        PTCLDY    41  25  53 CALM      30.09S
COFFEYVILLE    CLEAR     42  26  53 NE3       30.10S
HUTCHINSON     CLOUDY    47  31  53 NW13      30.10R
MEDICINE LODGE   N/A     48  29  47 N10       30.12R
NEWTON         CLOUDY    44  29  55 NW10      30.10R
PARSONS        CLEAR     41  26  55 MISG      30.11R
WICHITA INTL   CLOUDY    49  30  48 NW8       30.09S
WICHITA JABRA  CLOUDY    46  29  51 NW9       30.09S
WICHITA MCCONL CLOUDY    47  27  45 N8        30.09R
WINFIELD       CLOUDY    46  27  47 N6        30.11S
$$

KSZ007>012-019>026-033>040-048>060-102>105-150000-
NORTHEAST KANSAS

CITY           SKY/WX    TMP DP  RH WIND       PRES   REMARKS
CONCORDIA      CLOUDY    40  37  89 N8        30.10R
EMPORIA        CLOUDY    44  26  49 W6        30.08R
LAWRENCE       CLOUDY    43  26  51 NW3       30.08R
MANHATTAN      CLOUDY    45  29  53 NW6       30.09R
MARYSVILLE     RAIN      37  34  87 NW13      30.09R WCI  29
OLATHE IND     CLOUDY    39  26  59 CALM      30.08S
OLATHE EXE     CLOUDY    38  25  59 CALM      30.08R
SALINA         CLOUDY    46  34  62 NW14      30.10R
TOPEKA BILLARD CLOUDY    45  27  49 W5        30.07S
TOPEKA FORBES  CLOUDY    45  27  49 NW7       30.07R
$$



USA.gov is the U.S. government's official web portal to all federal, state and local government web resources and services.